Location: Nachod
(50.4170°N, 16.1670°E)
Time: 03:52:30
(UTC+02:00)

ISS - Visible Passes

Search period start: 01 July 2022 00:00
Search period end: 11 July 2022 00:00
Orbit: 414 x 420 km, 51.6° (Epoch: 30 June)

Date Brightness Start Highest point End Pass type
(mag) Time Alt. Az. Time Alt. Az. Time Alt. Az.
01 Jul -2.6 03:22:08 15° SSW 03:24:22 29° SSE 03:27:20 10° E visible
02 Jul -2.1 02:35:35 19° SSE 02:36:21 20° SE 02:38:55 10° E visible
03 Jul -1.5 01:48:57 13° SE 01:48:57 13° SE 01:50:10 10° ESE visible
03 Jul -3.6 03:21:51 14° SW 03:24:33 56° SSE 03:27:53 10° ENE visible
04 Jul -3.2 02:35:10 28° SSW 02:36:25 40° SSE 02:39:36 10° E visible
05 Jul -2.7 01:48:26 28° SE 01:48:26 28° SE 01:51:15 10° E visible
05 Jul -3.8 03:21:27 10° WSW 03:24:49 89° NW 03:28:13 10° ENE visible
06 Jul -1.6 01:01:39 15° ESE 01:01:39 15° ESE 01:02:44 10° E visible
06 Jul -3.9 02:34:30 21° WSW 02:36:35 73° SSE 02:39:57 10° ENE visible
07 Jul -3.7 01:47:38 43° SSW 01:48:22 54° SSE 01:51:40 10° ENE visible
07 Jul -3.5 03:21:45 10° W 03:25:06 71° N 03:28:29 10° E visible
08 Jul -3.0 01:00:40 36° SE 01:00:40 36° SE 01:03:20 10° E visible
08 Jul -3.7 02:33:32 11° W 02:36:48 78° N 02:40:11 10° ENE visible
09 Jul -1.9 00:13:35 19° ESE 00:13:35 19° ESE 00:14:54 10° E visible
09 Jul -3.9 01:46:26 22° WSW 01:48:30 89° SSE 01:51:52 10° ENE visible
09 Jul -3.5 03:22:00 10° W 03:25:22 71° N 03:28:43 10° E visible
09 Jul -1.2 23:26:16 10° E 23:26:16 10° E 23:26:17 10° E visible
10 Jul -3.9 00:59:06 38° SW 01:00:12 71° SSE 01:03:34 10° ENE visible
10 Jul -3.5 02:33:39 10° W 02:37:01 69° N 02:40:23 10° E visible
10 Jul -3.8 04:10:28 10° WNW 04:13:50 71° SSW 04:17:11 10° ESE visible
